2023/10/15 00:00:00, 0.0,13.1
2023/10/15 00:10:00, 0.0,13.2
2023/10/15 00:20:00, 0.0,13.2
2023/10/15 00:30:00, 0.0,13.2
2023/10/15 00:40:00, 0.0,13.1
2023/10/15 00:50:00, 0.0,12.8
2023/10/15 01:00:00, 0.0,12.8
2023/10/15 01:10:00, 0.0,12.6
2023/10/15 01:20:00, 0.0,12.4
2023/10/15 01:30:00, 0.0,12.6
2023/10/15 01:40:00, 0.0,12.4
2023/10/15 01:50:00, 0.0,12.4
2023/10/15 02:00:00, 0.0,12.2
2023/10/15 02:10:00, 0.0,12.1
2023/10/15 02:20:00, 0.0,11.9
2023/10/15 02:30:00, 0.0,11.7
2023/10/15 02:40:00, 0.0,11.3
2023/10/15 02:50:00, 0.0,11.5
2023/10/15 03:00:00, 0.0,11.2
2023/10/15 03:10:00, 0.0,11.1
2023/10/15 03:20:00, 0.0,11.4
2023/10/15 03:30:00, 0.0,11.0
2023/10/15 03:40:00, 0.0,11.1
2023/10/15 03:50:00, 0.0,11.8
2023/10/15 04:00:00, 0.0,11.9
2023/10/15 04:10:00, 0.0,12.0
2023/10/15 04:20:00, 0.0,12.0
2023/10/15 04:30:00, 0.0,11.7
2023/10/15 04:40:00, 0.0,12.0
2023/10/15 04:50:00, 0.0,12.0
2023/10/15 05:00:00, 0.0,12.2
2023/10/15 05:10:00, 0.0,12.2
2023/10/15 05:20:00, 0.0,12.0
2023/10/15 05:30:00, 0.0,12.0
2023/10/15 05:40:00, 0.0,12.0
2023/10/15 05:50:00, 0.0,12.4
2023/10/15 06:00:00, 0.0,12.2
2023/10/15 06:10:00, 0.0,11.5
2023/10/15 06:20:00, 0.0,11.5
2023/10/15 06:30:00, 0.0,11.4
2023/10/15 06:40:00, 0.0,11.3
2023/10/15 06:50:00, 0.0,11.1
2023/10/15 07:00:00, 0.0,11.3
2023/10/15 07:10:00, 0.0,11.3
2023/10/15 07:20:00, 0.0,11.1
2023/10/15 07:30:00, 0.0,11.3
2023/10/15 07:40:00, 0.0,11.7
2023/10/15 07:50:00, 0.0,12.2
2023/10/15 08:00:00, 0.0,12.2
2023/10/15 08:10:00, 0.0,13.0
2023/10/15 08:20:00, 0.0,13.6
2023/10/15 08:30:00, 0.0,13.7
2023/10/15 08:40:00, 0.0,13.7
2023/10/15 08:50:00, 0.0,15.4
2023/10/15 09:00:00, 0.0,15.2
2023/10/15 09:10:00, 0.0,14.1
2023/10/15 09:20:00, 0.0,13.5
2023/10/15 09:30:00, 0.0,13.6
2023/10/15 09:40:00, 0.0,12.9
2023/10/15 09:50:00, 0.0,13.1
2023/10/15 10:00:00, 0.0,13.2
2023/10/15 10:10:00, 0.0,13.4
2023/10/15 10:20:00, 0.0,14.1
2023/10/15 10:30:00, 0.0,14.5
2023/10/15 10:40:00, 0.0,14.8
2023/10/15 10:50:00, 0.0,16.2
2023/10/15 11:00:00, 0.0,15.9
2023/10/15 11:10:00, 0.9,16.6
2023/10/15 11:20:00, 0.4,17.0
2023/10/15 11:30:00, 0.0,17.3
2023/10/15 11:40:00, 0.1,17.5
2023/10/15 11:50:00, 0.1,17.8
2023/10/15 12:00:00, 0.6,18.1
2023/10/15 12:10:00, 0.4,17.9
2023/10/15 12:20:00, 0.3,18.0
2023/10/15 12:30:00, 0.4,19.0
2023/10/15 12:40:00, 0.4,16.8
2023/10/15 12:50:00, 0.6,16.6
2023/10/15 13:00:00,---,15.2
2023/10/15 13:10:00, 0.0,16.8
2023/10/15 13:20:00, 0.0,17.8
2023/10/15 13:30:00, 0.0,18.9
2023/10/15 13:40:00, 0.3,18.8
2023/10/15 13:50:00, 0.3,19.1
2023/10/15 14:00:00, 0.3,19.5
2023/10/15 14:10:00, 0.4,18.1
2023/10/15 14:20:00, 0.6,17.3
2023/10/15 14:30:00, 0.5,17.7
2023/10/15 14:40:00, 0.4,18.0
2023/10/15 14:50:00, 0.5,17.1
2023/10/15 15:00:00, 0.5,16.8
2023/10/15 15:10:00, 0.5,17.3
2023/10/15 15:20:00, 0.5,16.8
2023/10/15 15:30:00, 0.4,18.9
2023/10/15 15:40:00, 0.5,18.7
2023/10/15 15:50:00, 0.5,18.1
2023/10/15 16:00:00, 0.4,19.2
2023/10/15 16:10:00, 0.2,19.4
2023/10/15 16:20:00, 0.2,19.4
2023/10/15 16:30:00, 0.2,17.8
2023/10/15 16:40:00, 0.3,18.9
2023/10/15 16:50:00, 0.2,19.4
2023/10/15 17:00:00, 0.3,17.1
2023/10/15 17:10:00, 0.3,15.7
2023/10/15 17:20:00, 0.3,15.1
2023/10/15 17:30:00, 0.4,14.8
2023/10/15 17:40:00, 0.4,14.6
2023/10/15 17:50:00, 0.5,14.2
2023/10/15 18:00:00, 0.5,14.0
2023/10/15 18:10:00, 0.5,13.7
2023/10/15 18:20:00, 0.5,13.5
2023/10/15 18:30:00, 0.5,13.4
2023/10/15 18:40:00, 0.7,13.3
2023/10/15 18:50:00, 0.7,13.3
2023/10/15 19:00:00, 0.8,13.3
2023/10/15 19:10:00, 0.8,13.3
2023/10/15 19:20:00, 0.7,13.2
2023/10/15 19:30:00, 0.7,13.5
2023/10/15 19:40:00, 0.9,13.2
2023/10/15 19:50:00, 1.1,13.1
2023/10/15 20:00:00, 1.2,13.1
2023/10/15 20:10:00, 1.2,13.2
2023/10/15 20:20:00, 1.3,13.2
2023/10/15 20:30:00, 1.3,12.8
2023/10/15 20:40:00, 1.6,12.8
2023/10/15 20:50:00, 1.7,12.3
2023/10/15 21:00:00, 1.7,11.8
2023/10/15 21:10:00, 1.7,11.8
2023/10/15 21:20:00, 0.0,11.6
2023/10/15 21:30:00, 0.0,11.3
2023/10/15 21:40:00, 0.0,11.1
2023/10/15 21:50:00,---,11.0
2023/10/15 22:00:00, 0.0,11.0
2023/10/15 22:10:00, 0.0,10.8
2023/10/15 22:20:00, 0.0,10.9
2023/10/15 22:30:00, 1.8,10.5
2023/10/15 22:40:00, 1.6,10.4
2023/10/15 22:50:00, 1.8,10.6
2023/10/15 23:00:00, 0.0,10.9
2023/10/15 23:10:00, 0.0,10.9
2023/10/15 23:20:00, 0.0,11.3
2023/10/15 23:30:00,---,11.2
2023/10/15 23:40:00, 1.6,10.8
2023/10/15 23:50:00, 1.6,10.9
